Terminal Aerodrome Forecast
Issued by NWS

Home | Current Version | Previous Version | Text Only | Print | Product List | Glossary On
Versions: 1 2 3 4 5 6 7 8 9 10 11 12
000
FTUS45 KLKN 281720
TAFWMC
TAF
KWMC 281720Z 2818/2918 VRB06KT P6SM SKC
     FM282000 27008G16KT P6SM FEW150
     FM290200 VRB06KT P6SM SKC=

USA.gov is the U.S. government's official web portal to all federal, state and local government web resources and services.